DW0538 Weather Reports


time (UTC)temp
C
wind
direction
speed
KPH
gust
KPH
rain 1hr
cm
rain 24hr
cm
rain mn
cm
humidity
%
barometer
mb
20260510175815 22 279 0.0 14.5 0.00 0.38 0.00 62 1012.4
20260510174825 22 333 0.0 14.5 0.00 0.38 0.00 63 1012.2
20260510174315 22 318 1.6 6.4 0.00 0.38 0.00 63 1012.1
20260510173312 22 326 0.0 4.8 0.00 0.38 0.00 65 1012.1
20260510172817 22 40 0.0 6.4 0.00 0.38 0.00 64 1012.1
20260510172329 22 303 0.0 6.4 0.00 0.38 0.00 65 1012.0
20260510171828 22 321 0.0 0.0 0.00 0.38 0.00 69 1012.0
20260510171316 21 316 0.0 0.0 0.00 0.38 0.00 69 1012.0
20260510170318 21 286 0.0 0.0 0.00 0.38 0.00 72 1012.1
20260510165827 20 63 0.0 0.0 0.00 0.38 0.00 74 1012.2
20260510165318 20 290 0.0 1.6 0.00 0.38 0.00 75 1012.2
20260510164818 20 167 0.0 1.6 0.00 0.38 0.00 75 1012.2
20260510164323 19 146 0.0 0.0 0.00 0.38 0.00 75 1012.2
20260510163811 19 298 0.0 0.0 0.00 0.38 0.00 76 1012.5
20260510163315 18 293 0.0 0.0 0.00 0.38 0.00 79 1012.5
20260510162832 18 211 0.0 3.2 0.00 0.38 0.00 78 1012.6
20260510162309 18 339 0.0 4.8 0.00 0.38 0.00 79 1012.6
20260510161818 18 316 0.0 9.7 0.00 0.38 0.00 80 1012.7
20260510161318 18 5 0.0 9.7 0.00 0.38 0.00 80 1012.8
20260510160811 17 202 0.0 3.2 0.00 0.38 0.00 82 1012.7
20260510160325 17 273 0.0 3.2 0.00 0.38 0.00 83 1012.7
20260510155833 17 269 0.0 1.6 0.00 0.38 0.00 82 1012.7
20260510154817 16 315 0.0 3.2 0.00 0.38 0.00 85 1012.7
20260510154329 16 169 0.0 9.7 0.00 0.38 0.00 86 1012.7
20260510153814 16 234 0.0 9.7 0.00 0.38 0.00 87 1012.8
20260510152820 15 163 0.0 1.6 0.00 0.38 0.00 89 1013.0
20260510152325 15 240 0.0 4.8 0.00 0.38 0.00 89 1013.0
20260510151315 15 244 0.0 0.0 0.00 0.38 0.00 91 1012.9
20260510150322 14 169 0.0 0.0 0.00 0.38 0.00 92 1012.9
20260510145325 14 228 0.0 0.0 0.00 0.38 0.00 94 1013.0
20260510144825 13 337 0.0 0.0 0.00 0.38 0.00 94 1013.2
20260510144311 13 249 0.0 3.2 0.00 0.38 0.00 95 1013.2
20260510143810 13 311 0.0 0.0 0.00 0.38 0.00 95 1013.2
20260510143317 13 157 0.0 0.0 0.00 0.38 0.00 95 1013.1
20260510142307 13 322 0.0 3.2 0.00 0.38 0.00 95 1013.0
20260510141821 13 322 0.0 3.2 0.00 0.38 0.00 95 1013.1
20260510141328 12 321 0.0 0.0 0.00 0.38 0.00 96 1013.0
20260510140812 12 298 0.0 1.6 0.00 0.38 0.00 95 1013.0
20260510140313 12 261 0.0 1.6 0.00 0.38 0.00 95 1013.0
20260510135834 12 240 0.0 0.0 0.00 0.38 0.00 96 1012.9
20260510135323 12 240 0.0 0.0 0.00 0.38 0.00 96 1012.9
20260510134827 12 290 0.0 1.6 0.00 0.38 0.00 96 1012.9
20260510134311 12 304 0.0 1.6 0.00 0.38 0.00 96 1012.9
20260510133817 12 295 0.0 0.0 0.00 0.38 0.00 96 1012.9
20260510132818 12 273 0.0 0.0 0.00 0.38 0.00 96 1012.9
20260510131818 12 269 0.0 0.0 0.00 0.38 0.00 96 1012.8
20260510131331 12 313 0.0 1.6 0.00 0.38 0.00 96 1012.9
20260510130833 12 313 0.0 1.6 0.00 0.38 0.00 96 1012.9
20260510130313 11 36 0.0 0.0 0.00 0.38 0.00 96 1012.8
20260510125318 11 36 0.0 0.0 0.00 0.38 0.00 96 1012.5
20260510124825 11 36 0.0 0.0 0.00 0.38 0.00 96 1012.4
20260510124313 11 36 0.0 0.0 0.00 0.38 0.00 96 1012.2
20260510123817 11 36 0.0 0.0 0.00 0.38 0.00 96 1012.5
20260510122817 11 36 0.0 0.0 0.00 0.38 0.00 96 1012.3
20260510121820 11 36 0.0 1.6 0.00 0.38 0.00 96 1012.5
20260510121325 11 36 0.0 0.0 0.00 0.38 0.00 96 1012.5
20260510120816 11 36 0.0 0.0 0.00 0.38 0.00 96 1012.4
20260510115816 11 36 0.0 0.0 0.00 0.38 0.00 95 1012.1
20260510115331 11 36 0.0 0.0 0.00 0.38 0.00 96 1012.1
20260510114321 11 36 0.0 0.0 0.00 0.38 0.00 96 1012.2
20260510113829 11 36 0.0 0.0 0.00 0.38 0.00 96 1012.1
20260510112813 11 36 0.0 0.0 0.00 0.38 0.00 96 1012.0
20260510112322 11 36 0.0 0.0 0.00 0.38 0.00 96 1012.0
20260510111833 10 36 0.0 1.6 0.00 0.38 0.00 96 1011.9
20260510111322 10 36 0.0 1.6 0.00 0.38 0.00 96 1012.0
20260510110827 10 36 0.0 0.0 0.00 0.38 0.00 96 1011.9
20260510110313 10 36 0.0 0.0 0.00 0.38 0.00 96 1011.7
20260510105817 10 36 0.0 0.0 0.00 0.38 0.00 96 1011.6
20260510105325 10 36 0.0 0.0 0.00 0.38 0.00 95 1011.6
20260510104809 10 36 0.0 0.0 0.00 0.38 0.00 95 1011.6
20260510104325 10 36 0.0 0.0 0.00 0.38 0.00 95 1011.5
20260510103834 10 36 0.0 0.0 0.00 0.38 0.00 95 1011.4
20260510102827 10 36 0.0 0.0 0.00 0.38 0.00 95 1011.5
20260510102313 10 36 0.0 0.0 0.00 0.38 0.00 95 1011.4
20260510101832 10 36 0.0 0.0 0.00 0.38 0.00 95 1011.3
20260510101322 10 36 0.0 0.0 0.00 0.38 0.00 95 1011.4
20260510100833 10 36 0.0 0.0 0.00 0.38 0.00 95 1011.5
20260510095821 10 36 0.0 0.0 0.00 0.38 0.00 95 1011.4
20260510095310 10 36 0.0 0.0 0.00 0.38 0.00 95 1011.5
20260510094308 10 36 0.0 0.0 0.00 0.38 0.00 95 1011.6
20260510093308 10 36 0.0 1.6 0.00 0.38 0.00 95 1011.5
20260510092822 10 36 0.0 0.0 0.00 0.38 0.00 95 1011.4
20260510092318 10 36 0.0 0.0 0.00 0.38 0.00 95 1011.4
20260510091813 10 36 0.0 0.0 0.00 0.38 0.00 95 1011.4
20260510091327 10 36 0.0 0.0 0.00 0.38 0.00 95 1011.5
20260510090814 10 36 0.0 0.0 0.00 0.38 0.00 95 1011.6
20260510085831 10 36 0.0 0.0 0.00 0.38 0.00 95 1011.8
20260510085322 10 36 0.0 0.0 0.00 0.38 0.00 95 1012.0
20260510084825 10 36 0.0 0.0 0.00 0.38 0.00 95 1012.0
20260510084308 10 36 0.0 0.0 0.00 0.38 0.00 95 1012.1
20260510083825 10 36 0.0 0.0 0.00 0.38 0.00 95 1012.1
20260510083331 10 36 0.0 0.0 0.00 0.38 0.00 95 1011.8
20260510082826 10 36 0.0 1.6 0.00 0.38 0.00 95 1011.8
20260510082315 10 13 0.0 1.6 0.00 0.38 0.00 95 1011.8
20260510080814 11 17 0.0 0.0 0.00 0.38 0.00 95 1011.6
20260510080314 11 18 0.0 0.0 0.00 0.38 0.00 95 1011.7
20260510075829 11 158 0.0 0.0 0.00 0.38 0.00 95 1011.1
20260510074811 11 158 0.0 0.0 0.00 0.38 0.00 95 1010.9
20260510074331 11 158 0.0 0.0 0.00 0.38 0.00 95 1010.9
20260510073310 11 158 0.0 0.0 0.00 0.38 0.00 95 1010.9
20260510072825 10 158 0.0 0.0 0.00 0.38 0.00 95 1010.9
20260510072315 10 158 0.0 0.0 0.00 0.38 0.00 95 1010.8
20260510071815 10 158 0.0 0.0 0.00 0.38 0.00 95 1010.8
20260510071331 10 158 0.0 0.0 0.00 0.38 0.00 95 1010.9
20260510070823 10 158 0.0 0.0 0.00 0.38 0.00 95 1010.9
20260510070319 10 158 0.0 0.0 0.00 0.38 0.00 95 1010.9
20260510065829 10 158 0.0 0.0 0.00 0.38 0.00 95 1010.9
20260510065322 10 158 0.0 0.0 0.00 0.38 0.00 95 1011.0
20260510064815 10 158 0.0 0.0 0.00 0.38 0.00 95 1011.0
20260510064309 10 158 0.0 0.0 0.00 0.38 0.00 95 1011.1
20260510063829 10 158 0.0 0.0 0.00 0.38 0.00 95 1011.2
20260510063319 10 158 0.0 0.0 0.00 0.38 0.00 95 1011.1
20260510062818 10 158 0.0 0.0 0.00 0.38 0.00 95 1011.1
20260510061828 10 158 0.0 0.0 0.00 0.38 0.00 95 1010.9
20260510061309 11 158 0.0 0.0 0.00 0.38 0.00 95 1010.8
20260510060813 11 158 0.0 0.0 0.00 0.38 0.00 95 1010.7
20260510060326 11 158 0.0 0.0 0.00 0.38 0.00 95 1010.6
20260510055816 10 158 0.0 0.0 0.00 0.38 0.00 95 1010.7
20260510055313 10 158 0.0 0.0 0.00 0.38 0.00 95 1010.7
20260510054823 10 158 0.0 0.0 0.00 0.38 0.00 95 1010.8
20260510054322 10 158 0.0 0.0 0.00 0.38 0.00 95 1010.8
20260510053811 10 158 0.0 0.0 0.00 0.38 0.00 95 1010.8
20260510052809 10 158 0.0 0.0 0.00 0.38 0.00 95 1010.8
20260510052316 10 158 0.0 0.0 0.00 0.38 0.00 95 1010.8
20260510051829 10 158 0.0 0.0 0.00 0.38 0.00 95 1010.9
20260510051317 10 158 0.0 0.0 0.00 0.38 0.00 95 1010.8
20260510050827 10 158 0.0 0.0 0.00 0.38 0.00 95 1010.8
20260510050322 10 158 0.0 0.0 0.00 0.38 0.00 95 1011.0
20260510045333 10 158 0.0 0.0 0.00 0.38 0.00 95 1010.9
20260510044825 10 158 0.0 0.0 0.00 0.38 0.00 95 1011.0
20260510044323 10 158 0.0 0.0 0.00 0.38 0.00 94 1011.0
20260510043814 10 158 0.0 0.0 0.00 0.38 0.00 94 1011.0
20260510043312 10 158 0.0 0.0 0.00 0.38 0.00 94 1011.1
20260510042817 10 158 0.0 0.0 0.00 0.38 0.00 94 1011.0
20260510042315 10 158 0.0 0.0 0.00 0.38 0.41 94 1011.1
20260510041826 10 158 0.0 0.0 0.00 0.38 0.41 94 1011.1
20260510040820 10 158 0.0 0.0 0.00 0.38 0.41 94 1011.1
20260510040318 10 158 0.0 0.0 0.00 0.38 0.41 94 1011.0
20260510035829 10 158 0.0 0.0 0.00 0.38 0.41 94 1011.0
20260510035317 10 158 0.0 0.0 0.00 0.38 0.41 94 1011.0
20260510034836 10 158 0.0 0.0 0.00 0.38 0.41 94 1011.0
20260510034333 10 158 0.0 0.0 0.00 0.38 0.41 94 1010.9
20260510033818 10 158 0.0 0.0 0.00 0.38 0.41 93 1010.7
20260510033327 10 158 0.0 0.0 0.00 0.38 0.41 94 1010.7
20260510032817 10 158 0.0 0.0 0.00 0.38 0.41 94 1010.7
20260510032314 10 158 0.0 0.0 0.00 0.38 0.41 94 1010.7
20260510031827 10 158 0.0 0.0 0.00 0.38 0.41 94 1010.8
20260510031322 10 158 0.0 0.0 0.00 0.38 0.41 94 1010.6
20260510030829 10 158 0.0 0.0 0.00 0.38 0.41 94 1010.7
20260510030312 10 158 0.0 0.0 0.00 0.38 0.41 94 1010.6
20260510024825 10 158 0.0 0.0 0.00 0.38 0.41 94 1010.6
20260510024331 10 158 0.0 0.0 0.00 0.38 0.41 93 1010.7
20260510023816 10 158 0.0 0.0 0.03 0.38 0.41 94 1010.7
20260510023323 10 158 0.0 0.0 0.03 0.38 0.41 94 1010.7
20260510022311 10 158 0.0 0.0 0.03 0.38 0.41 93 1010.8
20260510021321 10 158 0.0 0.0 0.03 0.38 0.41 93 1010.9
20260510020323 10 158 0.0 0.0 0.03 0.38 0.41 93 1010.9
20260510015827 10 158 0.0 0.0 0.03 0.38 0.41 93 1010.9
20260510015331 10 158 0.0 0.0 0.03 0.38 0.41 93 1010.7
20260510014823 10 158 0.0 0.0 0.03 0.38 0.41 93 1010.7
20260510014325 10 158 0.0 0.0 0.03 0.38 0.41 93 1010.7
20260510013830 10 158 0.0 0.0 0.00 0.36 0.38 93 1010.5
20260510013315 11 158 0.0 0.0 0.00 0.36 0.38 93 1010.6
20260510011829 11 158 0.0 0.0 0.00 0.36 0.38 93 1010.6
20260510011309 11 158 0.0 0.0 0.00 0.36 0.38 92 1010.4
20260510010332 11 158 0.0 0.0 0.00 0.36 0.38 92 1010.5
20260510005833 11 158 0.0 0.0 0.00 0.36 0.38 92 1010.4
20260510005320 11 158 0.0 0.0 0.00 0.36 0.38 92 1010.3
20260510004822 11 158 0.0 0.0 0.00 0.36 0.38 92 1010.2
20260510004318 11 158 0.0 0.0 0.00 0.36 0.38 92 1010.2
20260510003818 11 158 0.0 0.0 0.00 0.36 0.38 92 1010.1
20260510003327 12 158 0.0 0.0 0.00 0.36 0.38 92 1010.1
20260510002832 12 158 0.0 0.0 0.00 0.36 0.38 92 1010.0
20260510002340 12 158 0.0 0.0 0.00 0.36 0.38 92 1009.9
20260510001820 12 158 0.0 0.0 0.00 0.36 0.38 92 1009.9
20260510001323 12 158 0.0 0.0 0.00 0.36 0.38 92 1010.0
20260510000821 12 158 0.0 0.0 0.00 0.36 0.38 92 1010.1
20260510000329 12 158 0.0 0.0 0.00 0.36 0.38 92 1010.2
20260509235311 12 158 0.0 0.0 0.00 0.36 0.38 92 1009.9
20260509234811 12 158 0.0 0.0 0.00 0.36 0.38 92 1009.9
20260509234320 12 158 0.0 0.0 0.00 0.36 0.38 92 1010.0
20260509233825 12 158 0.0 0.0 0.00 0.36 0.38 92 1009.9
20260509233320 12 158 0.0 0.0 0.00 0.36 0.38 92 1009.8
20260509232831 12 158 0.0 0.0 0.00 0.36 0.38 92 1009.7
20260509231333 13 158 0.0 0.0 0.00 0.36 0.38 92 1009.8
20260509230834 13 158 0.0 0.0 0.00 0.36 0.38 93 1009.7
20260509230317 13 158 0.0 0.0 0.00 0.36 0.38 93 1009.8
20260509225815 13 158 0.0 0.0 0.00 0.36 0.38 93 1009.8
20260509224821 12 158 0.0 0.0 0.00 0.36 0.38 92 1009.8
20260509223817 12 158 0.0 0.0 0.05 0.36 0.38 93 1010.1
20260509223307 12 158 0.0 0.0 0.10 0.36 0.38 93 1010.3
20260509222309 12 158 0.0 0.0 0.18 0.36 0.38 92 1010.2
20260509221819 12 158 0.0 0.0 0.20 0.36 0.38 92 1010.2
20260509221309 12 158 0.0 0.0 0.23 0.36 0.38 92 1010.2
20260509220323 12 126 0.0 0.0 0.28 0.36 0.38 93 1010.2
20260509215834 12 125 0.0 0.0 0.30 0.36 0.38 92 1010.1
20260509215327 12 125 0.0 0.0 0.30 0.36 0.38 92 1010.1
20260509214816 12 125 0.0 0.0 0.30 0.36 0.38 92 1010.4
20260509213315 12 30 0.0 1.6 0.23 0.25 0.28 91 1010.6
20260509212830 12 30 0.0 0.0 0.20 0.23 0.25 91 1010.5
20260509212325 12 30 0.0 0.0 0.15 0.18 0.20 92 1010.2
20260509210323 13 355 0.0 0.0 0.05 0.08 0.10 90 1010.4
20260509204824 13 355 0.0 0.0 0.03 0.05 0.08 90 1010.2
20260509204314 13 355 0.0 0.0 0.03 0.05 0.08 90 1009.8
20260509202328 13 355 0.0 0.0 0.03 0.03 0.05 89 1010.1
20260509201822 13 317 0.0 0.0 0.03 0.03 0.05 89 1010.2
20260509201323 13 317 0.0 0.0 0.03 0.03 0.05 89 1010.3
20260509200817 13 317 0.0 0.0 0.03 0.03 0.05 89 1010.4
20260509195808 13 317 0.0 0.0 0.03 0.03 0.05 88 1010.6
20260509194321 13 317 0.0 0.0 0.03 0.03 0.05 87 1011.0
20260509193811 13 317 0.0 0.0 0.03 0.03 0.05 87 1011.0
20260509193323 13 317 0.0 0.0 0.03 0.03 0.05 86 1011.1
20260509192818 13 321 0.0 4.8 0.00 0.00 0.03 85 1010.8
20260509192309 13 323 0.0 6.4 0.00 0.00 0.03 84 1011.0
20260509191822 14 355 0.0 6.4 0.00 0.00 0.03 84 1010.9
20260509191316 14 285 0.0 0.0 0.00 0.00 0.03 85 1010.8
20260509190327 14 286 0.0 0.0 0.00 0.00 0.03 84 1010.6
20260509185313 13 286 0.0 0.0 0.00 0.00 0.03 84 1010.5
20260509184827 13 286 0.0 0.0 0.00 0.00 0.03 84 1010.8
20260509184326 13 286 0.0 0.0 0.03 0.03 0.03 84 1010.6
20260509183817 13 315 0.0 0.0 0.03 0.03 0.03 84 1010.6
20260509183316 13 315 0.0 0.0 0.03 0.03 0.03 84 1010.7
20260509182815 13 315 0.0 1.6 0.03 0.03 0.03 83 1010.6
20260509181814 14 341 0.0 14.5 0.03 0.03 0.03 82 1010.8
20260509180822 15 313 0.0 6.4 0.03 0.03 0.03 82 1011.1